Weather in Lazarevskoye

Russia / Krasnodar Krai     43°54′30″N   39°20′00″E
temp.,
°C
wind,
m/s
gust,
m/s
humid.,
%
clouds,
%
prec.,
mm/h
press.,
hPa
HPBL,
m
10 may, mon
mon1000:00+9ne22648 0.1 1025119
03:00+8e336640 0.1 1025112
06:00+8e22665 0.1 1025118
09:00+11ssw22556 0.6 1025655
12:00+12w444830 0.7 10241664
15:00+12w444835 0.8 10241504
18:00+11w445825 0.4 10231169
21:00+11sw346199 0.7 10231146
11 may, tue
tue1100:00+9s356824 1.4 1022566
03:00+9sse5875100 2.4 1020430
06:00+9sse6974100 0.6 10201200
09:00+10s91171100 1.6 10191508
12:00+12s9116596 0.5 10181732
15:00+12ssw8105999 0.7 10181374
18:00+12s565982 0.0 10181003
21:00+11se346392 0.0 1018539
12 may, wed
wed1200:00+11se3356100 0.0 1017309
03:00+10ese335098 0.0 1016197
06:00+10ene324326 0.0 1016115
09:00+13w11395 0.0 1016305
12:00+14w22431 0.0 1015333
15:00+14wnw21470 0.0 1014314
18:00+15n33566 0.0 1013100
21:00+14ne33690 0.0 101329
13 may, thu
thu1300:00+15ene336086 0.0 101229
03:00+15ne445035 0.0 101131
06:00+16ene545039 0.0 101133
09:00+21s125091 0.0 1010111
12:00+20ssw114987 0.0 1010350
15:00+22ssw144754 0.0 1009350
18:00+22nnw11583 0.0 100911
21:00+20ne44590 0.0 100920
14 may, fri
fri1400:00+20ene44405 0.0 100918
03:00+20ene443865 0.0 100916
06:00+19ne3347100 0.0 100915
09:00+21nw225380 0.0 101069
12:00+21wnw11516 0.0 1010211
15:00+22n114988 0.0 1010161
18:00+23nw225823 0.0 101011
21:00+20ene117184 0.0 101012